This is the latest recevied weather packets stored in our database for station/object KB9HUO. If no packets are shown the sender has not sent any weather packets the latest 10 day(s).
| Time | Temp. | Humidity | Pressure | Rain* | Wind** | Luminosity | Snow |
|---|---|---|---|---|---|---|---|
| 1777596762 | 12.22° C | 72% | 1016 hPa | 0 mm | - | 0 W/m² | - |
| 1777596458 | 12.22° C | 71% | 1016.2 hPa | 0 mm | - | 0 W/m² | - |
| 1777596156 | 12.78° C | 68% | 1015.9 hPa | 0 mm | - | 1 W/m² | - |
| 1777595852 | 12.78° C | 67% | 1016.1 hPa | 0 mm | - | 2 W/m² | - |
| 1777595547 | 12.78° C | 62% | 1015.9 hPa | 0 mm | - | 3 W/m² | - |
| 1777595244 | 13.33° C | 66% | 1016.1 hPa | 0 mm | - | 4 W/m² | - |
| 1777594940 | 13.33° C | 61% | 1015.8 hPa | 0 mm | - | 6 W/m² | - |
| 1777594636 | 13.89° C | 58% | 1015.7 hPa | 0 mm | - | 8 W/m² | - |
| 1777594333 | 13.89° C | 55% | 1015.6 hPa | 0 mm | - | 10 W/m² | - |
| 1777594029 | 14.44° C | 56% | 1015.8 hPa | 0 mm | - | 12 W/m² | - |
| 1777593725 | 14.44° C | 54% | 1015.7 hPa | 0 mm | - | 14 W/m² | - |
| 1777593421 | 14.44° C | 57% | 1015.8 hPa | 0 mm | - | 16 W/m² | - |
| 1777593120 | 14.44° C | 50% | 1015.8 hPa | 0 mm | - | 17 W/m² | - |
| 1777592819 | 14.44° C | 52% | 1015.9 hPa | 0 mm | - | 20 W/m² | - |
| 1777592515 | 14.44° C | 52% | 1015.7 hPa | 0 mm | - | 20 W/m² | - |
| 1777592210 | 15° C | 51% | 1015.7 hPa | 0 mm | - | 23 W/m² | - |
| 1777591907 | 15° C | 52% | 1015.7 hPa | 0 mm | - | 23 W/m² | - |
| 1777591603 | 15° C | 49% | 1015.9 hPa | 0 mm | - | 23 W/m² | - |
| 1777591299 | 15° C | 47% | 1015.9 hPa | 0 mm | - | 22 W/m² | - |
| 1777590995 | 15° C | 49% | 1015.7 hPa | 0 mm | - | 22 W/m² | - |
| 1777590691 | 15.56° C | 45% | 1015.9 hPa | 0 mm | - | 26 W/m² | - |
| 1777590387 | 15.56° C | 43% | 1015.8 hPa | 0 mm | - | 32 W/m² | - |
| 1777590085 | 15.56° C | 42% | 1016.1 hPa | 0 mm | - | 30 W/m² | - |
| 1777589781 | 15.56° C | 46% | 1015.9 hPa | 0 mm | - | 34 W/m² | - |
| 1777589480 | 15.56° C | 49% | 1015.9 hPa | 0 mm | - | 35 W/m² | - |
* Rain latest hour (hover to see other rain measurements)
** Current wind speed in m/s (hover to see current wind gust speed)